EW7112 Weather Reports


Display with metric or nautical units.
time (UTC)temp
F
wind
direction
speed
MPH
gust
MPH
rain 1hr
in
rain 24hr
in
rain mn
in
humidity
%
barometer
mb
20260506061537 61 15 3.0 8.0 0.00 0.00 0.00 74 987.9
20260506044533 63 326 2.0 10.0 0.00 0.00 0.00 74 987.8
20260506043026 64 355 3.0 8.0 0.00 0.00 0.00 74 987.8
20260506041521 65 335 1.0 7.0 0.00 0.00 0.00 74 987.6
20260506040019 65 8 2.0 10.0 0.00 0.00 0.00 74 987.5
20260506034518 66 335 4.0 8.0 0.00 0.00 0.00 74 987.0
20260506033013 67 51 1.0 7.0 0.00 0.00 0.00 73 986.8
20260506031516 68 349 2.0 7.0 0.00 0.00 0.00 72 986.6
20260506030002 69 1 3.0 10.0 0.00 0.00 0.00 71 986.5
20260506024600 69 72 1.0 6.0 0.00 0.00 0.00 71 986.4
20260506023054 70 302 1.0 6.0 0.00 0.00 0.00 70 985.9
20260506021559 70 49 2.0 9.0 0.00 0.00 0.00 69 985.2
20260506020049 70 62 2.0 6.0 0.00 0.00 0.00 68 985.1
20260506014556 71 4 2.0 8.0 0.00 0.00 0.00 68 984.5
20260506013044 71 333 1.0 6.0 0.00 0.00 0.00 67 984.4
20260506011544 72 303 1.0 12.0 0.00 0.00 0.00 67 984.4
20260506010050 73 25 2.0 7.0 0.00 0.00 0.00 65 984.1
20260506004548 74 12 1.0 7.0 0.00 0.00 0.00 64 983.7
20260506003042 75 21 2.0 8.0 0.00 0.00 0.00 63 983.5
20260506001537 76 13 1.0 7.0 0.00 0.00 0.00 62 983.0
20260506000038 78 308 2.0 9.0 0.00 0.00 0.00 61 982.8
20260505234536 80 61 1.0 8.0 0.00 0.00 0.00 60 982.7
20260505233032 81 312 3.0 8.0 0.00 0.00 0.00 58 982.5
20260505231532 83 337 4.0 9.0 0.00 0.00 0.00 56 982.4
20260505230041 84 266 2.0 9.0 0.00 0.00 0.00 54 982.2
20260505224534 85 323 2.0 9.0 0.00 0.00 0.00 53 981.7
20260505223027 86 276 3.0 8.0 0.00 0.00 0.00 48 981.8
20260505221529 86 337 3.0 7.0 0.00 0.00 0.00 47 981.4
20260505220030 88 335 4.0 9.0 0.00 0.00 0.00 47 981.2
20260505214522 90 317 1.0 5.0 0.00 0.00 0.00 48 981.4
20260505213018 90 248 2.0 7.0 0.00 0.00 0.00 47 981.2
20260505211516 90 294 2.0 7.0 0.00 0.00 0.00 49 981.5
20260505210014 91 274 3.0 8.0 0.00 0.00 0.00 50 981.6
20260505204514 90 221 2.0 7.0 0.00 0.00 0.00 51 981.7
20260505203022 90 183 2.0 9.0 0.00 0.00 0.00 52 981.8
20260505201506 90 202 2.0 7.0 0.00 0.00 0.00 53 982.2
20260505200002 89 259 1.0 8.0 0.00 0.00 0.00 54 982.4
20260505194601 88 204 2.0 8.0 0.00 0.00 0.00 54 982.4
20260505193119 88 293 2.0 8.0 0.00 0.00 0.00 57 982.5
20260505191558 86 324 2.0 7.0 0.00 0.00 0.00 59 982.5
20260505190048 85 223 3.0 10.0 0.00 0.00 0.00 61 982.4
20260505184552 84 32 3.0 11.0 0.00 0.00 0.00 64 982.4
20260505183044 83 285 3.0 10.0 0.00 0.00 0.00 64 982.7
20260505181542 83 162 5.0 9.0 0.00 0.00 0.00 63 982.6
20260505180044 83 176 4.0 10.0 0.00 0.00 0.00 64 982.8
20260505174539 83 240 5.0 15.0 0.00 0.00 0.00 63 982.6
20260505173034 83 185 4.0 15.0 0.00 0.00 0.00 66 982.6
20260505171536 82 236 2.0 8.0 0.00 0.00 0.00 67 982.8
20260505170034 81 264 4.0 11.0 0.00 0.00 0.00 68 982.9
20260505164527 80 222 4.0 13.0 0.00 0.00 0.00 69 982.8
20260505163030 80 236 5.0 13.0 0.00 0.00 0.00 70 982.7
20260505161524 80 126 4.0 12.0 0.00 0.00 0.00 72 982.6
20260505153018 77 212 5.0 12.0 0.00 0.00 0.00 75 982.5
20260505151511 76 175 6.0 15.0 0.00 0.00 0.00 75 982.5
20260505124557 71 236 5.0 13.0 0.00 0.00 0.00 83 982.1
20260505123100 71 155 3.0 12.0 0.00 0.00 0.00 83 982.2
20260505121548 71 236 3.0 10.0 0.00 0.00 0.00 83 981.8
20260505120054 71 213 3.0 15.0 0.00 0.00 0.00 83 981.8
20260505114546 71 286 3.0 12.0 0.00 0.00 0.00 83 981.7
20260505113045 71 224 3.0 11.0 0.00 0.00 0.00 83 981.6
20260505111540 71 241 3.0 13.0 0.00 0.00 0.00 83 981.6
20260505101536 71 224 3.0 7.0 0.00 0.00 0.00 82 981.7
20260505100033 72 164 4.0 11.0 0.00 0.00 0.00 81 981.9
20260505094532 72 213 3.0 8.0 0.00 0.00 0.00 81 981.7
20260505093030 72 245 2.0 8.0 0.00 0.00 0.00 81 981.7
20260505091531 72 174 3.0 8.0 0.00 0.00 0.00 81 982.0
20260505090026 72 189 3.0 9.0 0.00 0.00 0.00 81 982.1
20260505084542 72 224 4.0 10.0 0.00 0.00 0.00 80 982.2
20260505083041 72 143 2.0 12.0 0.00 0.00 0.00 79 982.3
20260505081625 72 160 3.0 12.0 0.00 0.00 0.00 79 982.2
20260505080033 73 188 3.0 9.0 0.00 0.00 0.00 78 982.2
20260505074519 73 118 2.0 8.0 0.00 0.00 0.00 77 982.4
20260505073029 73 207 3.0 8.0 0.00 0.00 0.00 76 982.7
20260505071513 73 137 3.0 9.0 0.00 0.00 0.00 76 982.9
20260505070010 73 146 2.0 10.0 0.00 0.00 0.00 74 983.3
20260505064508 74 117 3.0 9.0 0.00 0.00 0.00 73 983.5
20260505063006 74 110 3.0 9.0 0.00 0.00 0.00 72 983.6